ORBCOMM FM40 [-]

Last updated on Thu Dec 28 2023 00:02:55 GMT+0000 (Coordinated Universal Time)

1 33065U 08031F 23361.41012407 .00003473 00000+0 51892-3 0 9997 2 33065 48.4441 2.1868 0007542 247.5661 274.9814 14.76779114834544
UTC large
Height (km)
Speed (km/s)
/
Latitude / Longitude
Inclination (degrees)
Orbital Period (minutes)
Azimuth
Elevation
Range (km)
Doppler Factor

Next 0 passes for location: London (51.5072 / 0.1276)

Sorry there are no passes over London.